#timestamp,LO_Frequency,Hit,StdDev 
1676991615.5,286046996.6,P
1676991635.3,286046997.8,N
1676991655.2,286046996.8,Y
1676991675.0,286047000.6,P
1676991675.9,286047000.6,N
1676991695.8,286047002.8,N
1676991715.6,286047001.5,N
1676991735.4,286047000.1,N
1676991755.3,286047005.5,Y
1676991775.1,286047004.6,P
1676991795.9,286047004.0,N
1676991815.7,286047001.8,N
1676991835.5,286047004.4,N
1676991855.4,286047002.0,N
1676991875.2,286047000.1,N
1676991895.0,286047001.8,N
1676991896.0,286047001.8,N
1676991915.8,286046998.5,N
1676991935.6,286046999.4,N
1676991955.5,286046997.4,N
1676991975.3,286046999.2,N
1676991995.1,286047002.3,N
1676992015.9,286046998.2,N
1676992035.7,286047001.2,N
1676992055.6,286047001.7,N
1676992075.4,286047000.5,N
1676992095.2,286047001.4,N
1676992115.1,286047005.2,N
1676992116.0,286047005.2,N
1676992135.8,286047003.0,N
1676992155.7,286047003.7,N
1676992175.5,286047001.5,N
1676992195.3,286047002.1,N
1676992215.2,286047001.4,N
1676992235.0,286047003.5,N
1676992235.9,286047003.5,N
1676992255.7,286047002.7,N
1676992275.6,286047002.6,N
1676992295.4,286047001.8,N
1676992315.3,286047003.3,N
1676992335.1,286047002.6,N
1676992336.0,286047002.6,N
1676992355.8,286047001.8,N
1676992375.7,286047003.2,N
1676992395.5,286047003.5,N
1676992415.3,286047003.6,N
1676992435.2,286047005.9,Y
1676992455.0,286047005.5,P
1676992455.9,286047005.5,P
1676992475.8,286047000.2,N
1676992495.6,286047002.3,N
1676992515.4,286046999.2,N
1676992535.3,286046997.4,N
1676992555.1,286046999.3,N
1676992575.9,286047002.0,N
1676992595.7,286047004.4,N
1676992615.5,286047002.9,N
1676992635.4,286047003.4,N
1676992655.2,286047002.8,N
1676992675.0,286047000.9,N
1676992675.9,286047000.9,N
1676992695.8,286047002.0,N
1676992715.6,286047000.6,N
1676992735.5,286046998.8,N
1676992755.3,286047002.3,N
1676992775.1,286047002.6,N
1676992795.9,286046999.7,N
1676992815.7,286047001.1,N
1676992835.5,286047002.6,N
1676992855.4,286047002.4,N
1676992875.2,286047000.3,N
1676992895.1,286047001.0,N
1676992896.0,286047001.0,N
1676992915.8,286047000.6,N
1676992935.6,286047002.3,N
1676992955.5,286047002.3,N
1676992975.3,286047001.5,N
1676992995.1,286047000.9,N
1676993015.9,286046998.4,N
1676993035.7,286047000.7,N
1676993055.6,286046998.5,N
1676993075.4,286046997.3,N
1676993095.2,286046997.8,N
1676993115.1,286046997.8,N
1676993116.0,286046997.8,N
1676993135.8,286046999.2,N
1676993155.6,286046996.3,N
1676993175.5,286046996.1,N
1676993195.3,286046996.5,N
1676993215.1,286046999.4,N
1676993235.9,286046998.3,N
1676993255.7,286046998.2,N
1676993275.6,286046996.7,N
1676993295.4,286046998.4,N
1676993315.2,286046998.4,N
1676993335.1,286046999.5,N
1676993336.0,286046999.5,N
1676993355.8,286047000.2,N
1676993375.6,286047000.8,N
1676993395.5,286047000.8,N
1676993415.3,286047000.9,N
1676993435.2,286047001.8,N
1676993455.9,286047000.5,N
1676993475.7,286046999.9,N
1676993495.6,286047000.2,N
1676993515.4,286047001.4,N
1676993535.2,286047001.9,N
1676993555.1,286047001.4,N
1676993556.0,286047001.4,N
1676993575.8,286047006.0,Y
1676993595.7,286047004.0,P
1676993615.5,286047001.3,N
1676993635.3,286047002.1,N
1676993655.2,286047005.5,Y
1676993675.0,286047002.6,P
1676993675.9,286047002.6,P
1676993695.8,286047000.8,N
1676993715.6,286046999.9,N
1676993735.4,286047002.3,N
1676993755.3,286046999.2,N
1676993775.1,286046997.7,N
1676993795.8,286046999.2,N
1676993815.7,286046998.3,N
1676993835.5,286046998.3,N
1676993855.4,286046997.6,N
1676993875.2,286046998.5,N
1676993895.0,286047000.3,N
1676993895.9,286047000.3,N
1676993915.8,286046999.4,N
1676993935.6,286046998.9,N
1676993955.4,286046999.2,N
1676993975.3,286046997.8,N
1676993995.1,286046996.7,N
1676994015.9,286046999.4,N
1676994035.7,286046998.6,N
1676994055.5,286046998.1,N
1676994075.4,286046998.2,N
1676994095.2,286047000.8,N
1676994115.0,286047000.7,N
1676994116.0,286047000.7,N
1676994135.8,286047000.9,N
1676994155.6,286047002.2,N
1676994175.5,286047001.5,N
1676994195.3,286047004.1,N
1676994215.1,286047001.8,N
1676994235.9,286047004.4,N
1676994255.7,286047002.7,N
1676994275.6,286046999.7,N
1676994295.4,286047000.1,N
1676994315.2,286047000.9,N
1676994335.1,286046999.8,N
1676994336.0,286046999.8,N
1676994355.8,286047002.7,N
1676994375.7,286047000.0,N
1676994395.5,286046999.8,N
1676994415.3,286047001.5,N
1676994435.2,286047002.8,N
1676994455.9,286047000.4,N
1676994475.7,286046999.9,N
1676994495.6,286047002.8,N
1676994515.4,286047000.8,N
1676994535.2,286046998.7,N
1676994555.1,286046998.2,N
1676994556.0,286046998.2,N
1676994575.8,286046998.1,N
1676994595.7,286046998.5,N
1676994615.5,286046996.5,N
1676994635.3,286046999.1,N
1676994655.2,286046998.9,N
1676994675.0,286047000.5,N
1676994675.9,286047000.5,N
1676994695.8,286047000.4,N
1676994715.6,286047000.4,N
1676994735.4,286047000.0,N
1676994755.3,286046998.3,N
1676994775.1,286046996.5,N
1676994795.8,286046997.0,N
1676994815.7,286046998.5,N
1676994835.5,286046999.1,N
1676994855.4,286046998.9,N
1676994875.2,286046997.6,N
1676994895.0,286046995.9,N
1676994895.9,286046995.9,N
1676994915.8,286046995.8,N
1676994935.6,286046994.9,N
1676994955.5,286046995.1,N
1676994975.3,286046996.1,N
1676994995.1,286046993.3,Y
1676995015.9,286046997.7,P
1676995035.7,286046995.5,P
1676995055.6,286046995.2,P
1676995075.4,286046995.0,Y
1676995095.2,286047000.3,P
1676995115.1,286047001.2,N
1676995116.0,286047001.2,N
1676995135.8,286046998.9,N
1676995155.6,286046998.8,N
1676995175.5,286046998.8,N
1676995195.3,286046998.4,N
